Tracking 21607 objects as of 23-Oct-2020
HD Live streaming from Space Station
objects crossing your sky now

COSMOS 736

Track COSMOS 736 now!
10-day predictions
COSMOS 736 is classified as:


NORAD ID: 7825
Int'l Code: 1975-045E
Perigee: 1,476.0 km
Apogee: 1,493.6 km
Inclination: 74.0 °
Period: 115.5 minutes
Semi major axis: 7855 km
RCS: 0.6859 m2 (medium)
Launch date: May 28, 1975
Source: Commonwealth of Independent States (former USSR) (CIS)
Launch site: PLESETSK MISSILE AND SPACE COMPLEX (PKMTR)
aabbcc
Your satellite tracking list
Your tracking list is empty




NASA's NSSDC Master Catalog

Two Line Element Set (TLE):
1  7825U 75045E   20296.45141281 -.00000019 +00000-0 -23534-4 0  9991
2  7825 074.0152 298.6653 0011191 328.6809 141.3328 12.46850753066703
Source of the keplerian elements: AFSPC